This is the latest recevied weather packets stored in our database for station/object K4KMJ. If no packets are shown the sender has not sent any weather packets the latest 10 day(s).
| Time | Temp. | Humidity | Pressure | Rain* | Wind** | Luminosity | Snow |
|---|---|---|---|---|---|---|---|
| 1777661859 | 32.78° C | 51% | 1012.5 hPa | 0 mm | - | 464 W/m² | - |
| 1777661555 | 32.22° C | 48% | 1012.9 hPa | 0 mm | - | 372 W/m² | - |
| 1777661252 | 32.78° C | 50% | 1012.9 hPa | 0 mm | - | 442 W/m² | - |
| 1777660947 | 32.22° C | 50% | 1013.1 hPa | 0 mm | - | 281 W/m² | - |
| 1777660643 | 32.22° C | 50% | 1012.9 hPa | 0 mm | - | 388 W/m² | - |
| 1777660340 | 33.33° C | 48% | 1013.1 hPa | 0 mm | - | 586 W/m² | - |
| 1777660037 | 33.33° C | 49% | 1013.1 hPa | 0 mm | - | 652 W/m² | - |
| 1777659734 | 32.22° C | 51% | 1013 hPa | 0 mm | - | 675 W/m² | - |
| 1777659430 | 32.78° C | 51% | 1013.2 hPa | 0 mm | - | 691 W/m² | - |
| 1777659128 | 33.33° C | 51% | 1012.8 hPa | 0 mm | - | 696 W/m² | - |
| 1777658826 | 32.78° C | 52% | 1013.1 hPa | 0 mm | - | 703 W/m² | - |
| 1777658521 | 32.22° C | 52% | 1013.6 hPa | 0 mm | - | 726 W/m² | - |
| 1777658218 | 32.78° C | 53% | 1013.5 hPa | 0 mm | - | 729 W/m² | - |
| 1777657915 | 32.22° C | 54% | 1013.2 hPa | 0 mm | - | 781 W/m² | - |
| 1777657611 | 32.22° C | 54% | 1013.5 hPa | 0 mm | - | 795 W/m² | - |
| 1777657309 | 32.22° C | 55% | 1013.3 hPa | 0 mm | - | 806 W/m² | - |
| 1777657006 | 31.67° C | 57% | 1013.6 hPa | 0 mm | - | 854 W/m² | - |
| 1777656703 | 31.11° C | 56% | 1013.6 hPa | 0 mm | - | 169 W/m² | - |
| 1777656394 | 31.67° C | 55% | 1013.2 hPa | 0 mm | - | 873 W/m² | - |
| 1777656088 | 32.22° C | 56% | 1013.5 hPa | 0 mm | - | 748 W/m² | - |
| 1777655785 | 32.22° C | 55% | 1013.5 hPa | 0 mm | - | 876 W/m² | - |
| 1777655482 | 32.22° C | 56% | 1013.7 hPa | 0 mm | - | 870 W/m² | - |
| 1777655179 | 32.22° C | 56% | 1013.5 hPa | 0 mm | - | 868 W/m² | - |
| 1777654876 | 31.11° C | 57% | 1013.5 hPa | 0 mm | - | 888 W/m² | - |
| 1777654573 | 31.11° C | 57% | 1013.5 hPa | 0 mm | - | 900 W/m² | - |
* Rain latest hour (hover to see other rain measurements)
** Current wind speed in m/s (hover to see current wind gust speed)